Location: *
(49.5667°N, 1.3667°W)
Time: 03:36:49
(UTC+00:00)

Cosmos 1140 Rocket - Pass Details

Date: 20 September 2019
Orbit: 745 x 767 km, 74.1° (Epoch: 22 October)

Event Time Altitude Azimuth Distance (km) Brightness Sun altitude
Rises 18:56:20 0° 340° (NNW) 3,226 7.2 -8.5°
Reaches altitude 10° 18:58:51 10° 347° (NNW) 2,293 6.3 -8.9°
Maximum altitude 19:03:46 41° 58° (ENE) 1,082 4.0 -9.7°
Enters shadow 19:08:26 11° 128° (SE) 2,202 5.3 -10.4°
